Columbia Owens, SC

5:37 PM EDT on June 27, 2017 (GMT -0400)
Columbia Owens Downtown

Weather History for KCUB - March, 2013

Change the Weather History Date:

Wednesday, March 20, 2013

  Actual Average Record
Temperature  
Mean Temperature 50 °F 58 °F  
Max Temperature 59 °F 70 °F 86 °F (2012)
Min Temperature 41 °F 46 °F 37 °F (2005)
Degree Days  
Heating Degree Days 15 8  
Month to date heating degree days 259 205  
Since 1 July heating degree days 1917 2134  
Cooling Degree Days 0 0  
Month to date cooling degree days 9 0  
Year to date cooling degree days 33 3  
Moisture  
Dew Point 21 °F    
Average Humidity 35    
Maximum Humidity 70    
Minimum Humidity 15    
Precipitation  
Precipitation 0.00 in 0.12 in 1.45 in (2003)
Month to date precipitation 1.45 2.57  
Year to date precipitation 8.08 9.85  
Sea Level Pressure  
Sea Level Pressure 30.00 in    
Wind  
Wind Speed 1 mph (SW)    
Max Wind Speed 8 mph    
Max Gust Speed 12 mph    
Visibility 10 miles    
Events      
T = Trace of Precipitation, MM = Missing Value Source: NWS Daily Summary

Daily Weather History Graph

Daily Weather History Graph

Search for Another Location

Airport or City:

Trip Planner

Search our weather history database for the weather conditions in past years. The results will help you decide how hot, cold, wet, or windy it might be!

Date:

Astronomy

Mar. 20, 2013 Rise Set
Actual Time 7:27 AM EDT 7:35 PM EDT
Civil Twilight 7:02 AM EDT 8:00 PM EDT
Nautical Twilight 6:33 AM EDT 8:29 PM EDT
Astronomical Twilight 6:03 AM EDT 8:59 PM EDT
Moon 1:24 PM EDT (3/20) 2:51 AM EDT (3/20)
Length of Visible Light 12h 58m
Length of Day
12h 08m
First Quarter, 59% of the Moon is Illuminated
Mar 20
First Quarter
Mar 27
Full
Apr 3
Last Quarter
Apr 10
New
Apr 18
First Quarter

Hourly Weather History & Observations

Time (EDT) Temp. Dew Point Humidity Pressure Visibility Wind Dir Wind Speed Gust Speed Precip Events Conditions
12:53 AM 55.9 °F 21.9 °F 27% 30.04 in 10.0 mi Calm Calm - N/A   Clear
1:53 AM 53.1 °F 23.0 °F 31% 30.04 in 10.0 mi Calm Calm - N/A   Clear
2:53 AM 52.0 °F 19.0 °F 27% 30.05 in 10.0 mi Calm Calm - N/A   Clear
3:53 AM 48.9 °F 19.0 °F 31% 30.04 in 10.0 mi Calm Calm - N/A   Clear
4:53 AM 48.0 °F 18.0 °F 30% 30.04 in 10.0 mi Calm Calm - N/A   Clear
5:53 AM 43.0 °F 28.0 °F 56% 30.05 in 10.0 mi Calm Calm - N/A   Clear
6:53 AM 42.1 °F 27.0 °F 55% 30.09 in 10.0 mi Calm Calm - N/A   Clear
7:53 AM 42.1 °F 28.9 °F 60% 30.10 in 10.0 mi Calm Calm - N/A   Partly Cloudy
8:53 AM 48.0 °F 25.0 °F 41% 30.14 in 10.0 mi Calm Calm - N/A   Scattered Clouds
9:53 AM 51.1 °F 17.1 °F 26% 30.14 in 10.0 mi Variable 4.6 mph - N/A   Scattered Clouds
11:53 AM 53.1 °F 12.9 °F 20% 30.12 in 10.0 mi Variable 3.5 mph - N/A   Overcast
12:53 PM 54.0 °F 12.9 °F 20% 30.09 in 10.0 mi Calm Calm - N/A   Overcast
1:53 PM 55.0 °F 10.9 °F 17% 30.06 in 10.0 mi Calm Calm - N/A   Mostly Cloudy
2:53 PM 57.0 °F 10.0 °F 15% 30.01 in 10.0 mi Calm Calm - N/A   Partly Cloudy
3:53 PM 57.0 °F 12.0 °F 17% 29.95 in 10.0 mi Calm Calm - N/A   Clear
4:53 PM 57.9 °F 17.1 °F 20% 29.92 in 10.0 mi SW 4.6 mph - N/A   Clear
5:53 PM 59.0 °F 18.0 °F 20% 29.90 in 10.0 mi Calm Calm - N/A   Clear
6:53 PM 57.9 °F 19.0 °F 22% 29.89 in 10.0 mi Calm Calm - N/A   Clear
7:53 PM 55.0 °F 25.0 °F 31% 29.87 in 10.0 mi Calm Calm - N/A   Clear
8:53 PM 48.9 °F 30.9 °F 50% 29.86 in 9.0 mi Calm Calm - N/A   Clear
9:53 PM 46.0 °F 32.0 °F 58% 29.86 in 10.0 mi Calm Calm - N/A   Clear
10:53 PM 44.1 °F 33.1 °F 65% 29.86 in 8.0 mi Calm Calm - N/A   Clear
11:53 PM 43.0 °F 33.1 °F 68% 29.84 in 10.0 mi Calm Calm - N/A   Clear